Weather History for Pecs, Hungary

Change the Weather History Date:

Wednesday, February 20, 2013

  Actual Average Record
Temperature  
Mean Temperature 34 °F -  
Max Temperature 38 °F 48 °F - ()
Min Temperature 30 °F 33 °F - ()
Degree Days  
Heating Degree Days 31    
Moisture  
Dew Point 28 °F    
Average Humidity 79    
Maximum Humidity 93    
Minimum Humidity 49    
Precipitation  
Precipitation 0.00 in 0.05 in - ()
Sea Level Pressure  
Sea Level Pressure 30.01 in    
Wind  
Wind Speed 5 mph ()    
Max Wind Speed 13 mph    
Max Gust Speed -    
Visibility 6.2 miles    
Events Snow    
T = Trace of Precipitation, MM = Missing Value Source: Averaged Metar Reports

Daily Weather History Graph

Daily Weather History Graph

Search for Another Location

Airport:

Trip Planner

Search our weather history database for the weather conditions in past years. The results will help you decide how hot, cold, wet, or windy it might be!

Date:

Astronomy

Feb. 20, 2013 Rise Set
Actual Time 6:41 AM CET 5:20 PM CET
Civil Twilight 6:11 AM CET 5:51 PM CET
Nautical Twilight 5:36 AM CET 6:25 PM CET
Astronomical Twilight 5:01 AM CET 7:00 PM CET
Moon 12:16 PM CET (2/20) 2:57 AM CET (2/20)
Length of Visible Light 11h 39m
Length of Day
10h 39m
Waxing Gibbous, 74% of the Moon is Illuminated
Feb 20
Waxing Gibbous
Feb 25
Full
Mar 4
Last Quarter
Mar 11
New
Mar 19
First Quarter

Hourly Weather History & Observations

Time (CET) Temp. Windchill Dew Point Humidity Pressure Visibility Wind Dir Wind Speed Gust Speed Precip Events Conditions
1:45 AM 33.8 °F 27.7 °F 28.4 °F 81% 29.92 in - WNW 6.9 mph - N/A   Clear
2:45 AM 33.8 °F 27.0 °F 28.4 °F 81% 29.92 in - WNW 8.1 mph - N/A   Clear
3:45 AM 33.8 °F 29.6 °F 30.2 °F 87% 29.92 in - NNW 4.6 mph - N/A   Clear
4:43 AM 33.8 °F 27.7 °F 30.2 °F 87% 29.98 in 6.2 mi WNW 6.9 mph - N/A Snow Light Snow
4:45 AM 33.8 °F 28.6 °F 30.2 °F 87% 29.95 in 6.2 mi WNW 5.8 mph - N/A Snow Light Snow
5:15 AM 35.6 °F 30.7 °F 30.2 °F 81% 29.95 in - WNW 5.8 mph - N/A   Clear
5:45 AM 35.6 °F 31.7 °F 28.4 °F 75% 29.95 in - WNW 4.6 mph - N/A   Clear
6:00 AM - - - N/A% - 6.2 mi WNW 6.9 mph - N/A   Overcast
6:15 AM 33.8 °F 29.6 °F 28.4 °F 81% 29.95 in - NW 4.6 mph - N/A   Clear
6:45 AM 33.8 °F 30.8 °F 30.2 °F 87% 29.95 in 5.0 mi NW 3.5 mph - N/A   Overcast
7:00 AM 34 °F - 29 °F 76% 29.99 in 5 mi NW 4.5 mph - -   Partly Cloudy
7:15 AM 33.8 °F - 30.2 °F 87% 29.98 in - NW 2.3 mph - N/A   Clear
7:45 AM 33.8 °F - 30.2 °F 87% 29.98 in 6.2 mi NW 2.3 mph - N/A   Overcast
8:15 AM 35.6 °F - 30.2 °F 81% 29.98 in 6.2 mi West 2.3 mph - N/A   Mostly Cloudy
8:45 AM 35.6 °F 31.7 °F 30.2 °F 81% 29.98 in 6.2 mi WSW 4.6 mph - N/A   Mostly Cloudy
9:00 AM - - - N/A% - 6.2 mi NW 6.9 mph - N/A   Overcast
9:15 AM 35.6 °F 31.7 °F 30.2 °F 81% 30.01 in 6.2 mi West 4.6 mph - N/A   Mostly Cloudy
9:45 AM 37.4 °F 33.8 °F 30.2 °F 75% 30.01 in 6.2 mi WNW 4.6 mph - N/A   Overcast
10:15 AM 37.4 °F 33.8 °F 28.4 °F 70% 30.01 in 6.2 mi NNW 4.6 mph - N/A   Mostly Cloudy
10:45 AM 37.4 °F 34.9 °F 28.4 °F 70% 30.01 in 6.2 mi North 3.5 mph - N/A   Mostly Cloudy
11:15 AM 37.4 °F - 28.4 °F 70% 30.01 in 6.2 mi North 2.3 mph - N/A   Mostly Cloudy
11:45 AM 37.4 °F 32.8 °F 26.6 °F 65% 30.01 in 6.2 mi NE 5.8 mph - N/A   Mostly Cloudy
12:00 PM - - - N/A% - 6.2 mi NNW 5.8 mph - N/A   Overcast
12:15 PM 37.4 °F 34.9 °F 24.8 °F 60% 30.01 in 6.2 mi NNE 3.5 mph - N/A   Mostly Cloudy
1:00 PM 38 °F - 26 °F 49% 30.04 in 19 mi North 2.2 mph - -   Partly Cloudy
1:15 PM 37.4 °F - 26.6 °F 65% 30.01 in 6.2 mi WNW 2.3 mph - N/A   Overcast
1:45 PM 35.6 °F 30.7 °F 30.2 °F 81% 30.01 in 5.0 mi South 5.8 mph - N/A Snow Light Snow
2:15 PM 33.8 °F 29.6 °F 32.0 °F 93% 30.01 in 5.0 mi SSW 4.6 mph - N/A Snow Light Snow
2:45 PM 35.6 °F 29.9 °F 24.8 °F 65% 30.04 in 5.0 mi NNW 6.9 mph - N/A Snow Light Snow
3:00 PM - - - N/A% - 6.2 mi NNW 5.8 mph - N/A   Overcast
3:15 PM 33.8 °F 24.8 °F 26.6 °F 75% 30.04 in 5.0 mi North 12.7 mph - N/A Snow Light Snow
3:45 PM 33.8 °F 25.8 °F 24.8 °F 70% 30.04 in 3.7 mi North 10.4 mph - N/A Snow Light Snow
4:15 PM 32.0 °F 24.2 °F 28.4 °F 87% 30.04 in 3.7 mi NNE 9.2 mph - N/A Snow Light Snow
4:45 PM 32.0 °F 27.5 °F 28.4 °F 87% 30.04 in 3.7 mi NE 4.6 mph - N/A Snow Light Snow
5:45 PM 32.0 °F - 28.4 °F 87% 30.04 in 6.2 mi SE 2.3 mph - N/A   Overcast
6:15 PM 32.0 °F - 28.4 °F 87% 30.04 in 6.2 mi East 2.3 mph - N/A   Overcast
6:45 PM 32.0 °F - 28.4 °F 87% 30.06 in - Calm Calm - N/A   Clear
7:00 PM 32 °F - 29 °F 83% 30.09 in 9 mi Calm Calm - -   Partly Cloudy
7:15 PM 32.0 °F - 26.6 °F 80% 30.06 in - NW 2.3 mph - N/A   Clear
7:45 PM 32.0 °F - 26.6 °F 80% 30.06 in - NNW 2.3 mph - N/A   Clear
8:15 PM 32.0 °F 28.7 °F 26.6 °F 80% 30.06 in - NW 3.5 mph - N/A   Clear
8:45 PM 32.0 °F 27.5 °F 28.4 °F 87% 30.06 in - NW 4.6 mph - N/A   Clear
9:45 PM 30.2 °F 25.4 °F 28.4 °F 93% 30.06 in - NW 4.6 mph - N/A   Clear
10:45 PM 32.0 °F 27.5 °F 26.6 °F 80% 30.09 in - NNW 4.6 mph - N/A   Clear